Hourly Data Report for March 13, 2021

TORONTO CITY
ONTARIO
Current Station Operator: ECCC - MSC

43°40'00.000" N
79°24'00.000" W
112.50 m
6158355
71508
XTO

Download Data

Hourly Data (March 2021)
Hourly Data Report for March 13, 2021
TIME
LST
Temp Definition
°C
Dew Point Definition
°C
Rel Hum Definition
%
Precip. Amount Definition
mm

Wind Dir Definition
10's deg

Wind Spd Definition
km/h
Visibility Definition
km
Stn Press Definition
kPa
Hmdx Definition


Wind Chill Definition


Weather Definition


00:00 -3.0 -11.5 52 0.0       101.58     LegendNANA
01:00 -3.2 -11.4 53 0.0       101.63     LegendNANA
02:00 -3.6 -11.3 55 0.0       101.66     LegendNANA
03:00 -3.9 -10.9 58 0.0       101.65     LegendNANA
04:00 -4.1 -11.1 58 0.0       101.63     LegendNANA
05:00 -4.4 -10.8 61 0.0       101.67     LegendNANA
06:00 -4.6 -11.7 57 0.0       101.67     LegendNANA
07:00 -5.0 -15.4 44 0.0       101.71     LegendNANA
08:00 -4.0 -14.3 45 0.0       101.70     LegendNANA
09:00 -2.7 -12.5 47 0.0       101.69     LegendNANA
10:00 -1.2 -11.3 46 0.0       101.62     LegendNANA
11:00 0.4 -10.9 42 0.0       101.53     LegendNANA
12:00 2.7 -10.6 37 0.0       101.43     LegendNANA
13:00 3.9 -11.6 31 0.0       101.29     LegendNANA
14:00 4.8 -10.0 33 0.0       101.11     LegendNANA
15:00 4.9 -10.0 33 0.0       101.02     LegendNANA
16:00 5.6 -8.4 36 0.0       100.91     LegendNANA
17:00 5.8 -9.0 34 0.0       100.79     LegendNANA
18:00 5.8 -8.0 36 0.0       100.68     LegendNANA
19:00 5.3 -7.5 39 0.0       100.62     LegendNANA
20:00 4.7 -4.7 51 0.0       100.53     LegendNANA
21:00 3.8 -4.9 53 0.0       100.52     LegendNANA
22:00 3.2 -5.6 52 0.0       100.51     LegendNANA
23:00 3.0 -5.0 56 0.0       100.47     LegendNANA

Notes on Data Quality.

Legend

  • E = Estimated
  • M = Missing
  • NA = Not Available*
  • [empty] = Indicates an unobserved value
Date modified: